This is the latest recevied weather packets stored in our database for station/object N9CQL. If no packets are shown the sender has not sent any weather packets the latest 1 day(s).
| Time | Temp. | Humidity | Pressure | Rain* | Wind** | Luminosity | Snow |
|---|---|---|---|---|---|---|---|
| 1778004749 | 14.44° C | 39% | 1008.1 hPa | 0 mm | 0 m/s | 337 W/m² | - |
| 1778004446 | 15° C | 40% | 1008 hPa | 0 mm | 0 m/s | 354 W/m² | - |
| 1778004142 | 14.44° C | 43% | 1007.9 hPa | 0 mm | 0 m/s | 352 W/m² | - |
| 1778003839 | 14.44° C | 40% | 1007.8 hPa | 0 mm | 0 m/s | 389 W/m² | - |
| 1778003535 | 15° C | 39% | 1007.7 hPa | 0 mm | 0 m/s | 364 W/m² | - |
| 1778003232 | 15° C | 37% | 1007.8 hPa | 0 mm | 1.34 m/s, 39° | 390 W/m² | - |
| 1778002929 | 15° C | 40% | 1007.8 hPa | 0 mm | 0 m/s | 404 W/m² | - |
| 1778002625 | 14.44° C | 43% | 1007.9 hPa | 0 mm | 0 m/s | 356 W/m² | - |
| 1778002322 | 13.89° C | 42% | 1007.7 hPa | 0 mm | 0 m/s | 319 W/m² | - |
| 1778002019 | 14.44° C | 42% | 1007.8 hPa | 0 mm | 0 m/s | 303 W/m² | - |
| 1778001716 | 13.89° C | 48% | 1007.8 hPa | 0 mm | 0 m/s | 367 W/m² | - |
| 1778001415 | 14.44° C | 45% | 1008 hPa | 0 mm | 0 m/s | 395 W/m² | - |
| 1778001113 | 13.89° C | 42% | 1007.8 hPa | 0 mm | 0 m/s | 445 W/m² | - |
| 1778000810 | 15° C | 44% | 1007.8 hPa | 0 mm | 0 m/s | 423 W/m² | - |
| 1778000506 | 15° C | 46% | 1007.9 hPa | 0 mm | 0 m/s | 413 W/m² | - |
| 1778000201 | 15° C | 43% | 1007.7 hPa | 0 mm | 0 m/s | 551 W/m² | - |
| 1777999897 | 13.89° C | 47% | 1007.4 hPa | 0 mm | 0 m/s | 693 W/m² | - |
| 1777999593 | 13.89° C | 43% | 1007.5 hPa | 0 mm | 0 m/s | 659 W/m² | - |
| 1777999291 | 13.89° C | 45% | 1007.5 hPa | 0 mm | 0 m/s | 727 W/m² | - |
| 1777998989 | 13.89° C | 45% | 1007.8 hPa | 0 mm | 0 m/s | 787 W/m² | - |
| 1777998686 | 13.33° C | 47% | 1007.9 hPa | 0 mm | 0 m/s | 467 W/m² | - |
| 1777998383 | 13.33° C | 46% | 1007.7 hPa | 0 mm | 0 m/s | 524 W/m² | - |
| 1777998081 | 13.33° C | 52% | 1007.9 hPa | 0 mm | 0 m/s | 322 W/m² | - |
| 1777997778 | 13.89° C | 47% | 1007.6 hPa | 0 mm | 0.89 m/s, 317° | 668 W/m² | - |
| 1777997475 | 12.78° C | 57% | 1007.8 hPa | 0 mm | 0 m/s | 747 W/m² | - |
* Rain latest hour (hover to see other rain measurements)
** Current wind speed in m/s (hover to see current wind gust speed)